CZ-3B R/B, 62486

Orbit data source: Space-Track

CZ-3B R/B, 62486 is space debris in HEO originally from a launch on Mon, 06 Jan 2025 UTC launched from the Xichang Space Center, China (XSC). Debris objects in space refer to the collection of defunct objects orbiting the Earth. Examples of debris include non-operational satellites, rocket bodies, and fragments generated from explosions, collisions, or faulty payload assembly.

Loading next visibility...
CZ-3B R/B details
Identifier
62486, 2025-002B
Orbit
HEO
Last TLE update21 hours ago
Origin
Flag of CNCASC (CN / PRC)
ManufacturerCALT
MissionSpacecraft
Bus & MotorCZ-3A STAGE 3, Unknown motor
Mass~2,800 kg wet, ~2,800 kg dry
Launch date (UTC)
2025-01-06 (3 weeks ago)
Launch vehicleUnknown
Launch site
Xichang Space Center, China (XSC)
Object type
Payload
Rocket body
Debris
Shape & HBRUnknown
Radar Cross SectionLarge (>1 m²)

Expand to show TLE details & history

TLE from 21 hours ago
0 CZ-3B R/B
1 62486U 25002B   25024.98581018  .00032700  31102-6  60087-3 0  9997
2 62486  28.5343  37.3580 7356523 190.1557 136.2558  2.23413149   412
Epoch: 2025-01-24T23:39Z
Definitive object data (Epoch: 2025-01-24T23:39:33.999Z)
Latitude-0.00013°
Longitude-82.0682°
Altitude34,707.503 km
Speed1.81 km/s
True Right ascension02h 29m 27s
True Declination0° 00' 00"
Sunlit
Object was in daylight at TLE epoch
Visualization TLE readout
Latitude-2.92027°
Longitude-87.76113°
Altitude31,957.503 km
Speed2.16 km/s
Apparent Right ascension02h 34m 44s
Apparent Declination-9° 21' 33"
Sunlit
Object is in daylight
Visualization observer readout
Local Sidereal Time21:44:16
Azimuth108.436° ESE
Elevation6.994°
Doppler factor1
Orbital elements
Apogee altitude36,528.579 km
Perigee altitude156.75 km
Semi-major axis24,720.802 km
Eccentricity0.7356523
Inclination28.5343°
RAAN37.358°
Arg. of periapsis190.1557°
True anomaly169.88287°
Mean anomaly136.2558°
Eccentric anomaly154.44095°
Mean motion0.55841 °/min
BSTAR0.00060087
Orbital period644.69 mins
Loading maneuver chart data...
Loading historical data...
Loading historical data...
Loading historical data...
Loading historical data...
Loading historical data...
Loading historical data...
Loading historical data...
Other satellites on launch #2 in the year 2025 (2025-01-06 UTC)

CZ-3B R/B Visibility forecast

Observer location: undefined°, undefined

Span
Click to sort rows by Start time (UTC) header in descending order
Start Az.
Max El. time (UTC)
Max El. Az.
Max El.
End time (UTC)
End Az.
394 mins2025-01-25 20:44:10.907Z109.065° ESE2025-01-26 02:02:10.907Z120.117° SE37.559°2025-01-26 03:18:10.907Z84.161° E
|